Location: Borea
(45.6167°N, 23.0167°E)
Time: 01:04:13
(UTC+00:00)

OPS 8068 - Pass Details

Date: 23 February 2024
Orbit: 631 x 963 km, 98.3° (Epoch: 13 April)

Event Time Altitude Azimuth Distance (km) Brightness Sun altitude
Rises 16:33:40 0° 10° (N) 3,273 ? -5.7°
Reaches altitude 10° 16:35:55 10° 7° (N) 2,389 ? -6.1°
Maximum altitude 16:41:10 62° 288° (WNW) 960 ? -7.0°
Drops below altitude 10° 16:46:50 10° 209° (SSW) 2,579 ? -8.0°
Sets 16:49:21 0° 206° (SSW) 3,554 ? -8.4°
